Home > Weather > Paterson > Past weeks

Flag for USA Past Weather in Paterson, New Jersey, USA — Yesterday and Last 2 Weeks

Now
69 °F

Overcast.


Feels Like: 69 °F
Forecast: 59 / 75 °F
Wind: 5 mph from North

Location: Essex County Airport

Current Time: May 24, 2016 at 1:44:25 PM

Latest Report: May 24, 2016 at 12:53 PM


Visibility: 10 mi

Pressure: 29.93 "Hg

Humidity: 66%

Dew Point: 57 °F

Location of PatersonLocation

Past Weather in Paterson — Graph

°F

Paterson Temperature Yesterday

Maximum temperature yesterday: 77 °F (at 1:53 PM)
Minimum temperature yesterday: 51 °F (at 3:53 AM)
Average temperature yesterday: 63 °F

High & Low Weather Summary for the Past Weeks

 TemperatureHumidityPressure
High78 °F (May 12, 2:53 PM)97% (May 14, 2:58 AM)30.29 "Hg (May 14, 2:58 AM)
Low38 °F (May 16, 4:53 AM)21% (May 16, 4:53 PM)29.61 "Hg (May 14, 4:53 PM)
Average59 °F58%30.03 "Hg
* Reported May 9 11:53 AM — May 24 11:53 AM, Paterson, Weather by CustomWeather, © 2016

Note: Actual official high and low records may vary slightly from our data, if they occured in-between our weather recording intervals... More about our weather records

Advertising

Paterson Weather History for the Previous 24 Hours

Scroll right to see more
 ConditionsComfort  
Time TempWeatherWind HumidityBarometerVisibility
11:53 AM
Tue, May 24
66 °FOvercast.3 mph78%29.94 "Hg10 mi
10:53 AM64 °FOvercast.5 mph81%29.94 "Hg10 mi
9:53 AM61 °FLight rain. Overcast.No wind87%29.94 "Hg9 mi
8:53 AM60 °FLight rain. Fog.3 mph86%29.95 "Hg4 mi
7:53 AM60 °FLight rain. Mostly cloudy.No wind86%29.93 "Hg9 mi
6:53 AM58 °FLight rain. Overcast.No wind93%29.92 "Hg7 mi
5:53 AM57 °FOvercast.3 mph93%29.90 "Hg8 mi
4:53 AM57 °FMostly cloudy.No wind93%29.89 "Hg10 mi
3:53 AM57 °FLight rain. Mostly cloudy.No wind93%29.90 "Hg8 mi
2:53 AM57 °FLight rain. Mostly cloudy.3 mph93%29.90 "Hg9 mi
1:53 AM58 °FLight rain. Overcast.5 mph87%29.92 "Hg10 mi
12:53 AM59 °FOvercast.No wind81%29.92 "Hg10 mi
11:53 PM
Mon, May 23
58 °FMostly cloudy.No wind87%29.95 "Hg10 mi
10:53 PM60 °FMostly cloudy.No wind75%29.94 "Hg10 mi
9:53 PM62 °FOvercast.No wind70%29.93 "Hg10 mi
8:53 PM63 °FPartly sunny.No wind81%29.90 "Hg10 mi
7:53 PM61 °FPartly sunny.No wind90%29.89 "Hg9 mi
6:53 PM64 °FLight rain. Broken clouds.5 mph70%29.87 "Hg10 mi
5:53 PM62 °FScattered clouds.6 mph75%29.86 "Hg10 mi
4:53 PM74 °FPassing clouds.No wind48%29.86 "Hg10 mi
3:53 PM71 °FSunny.No wind55%29.88 "Hg10 mi
2:53 PM76 °FMostly cloudy.5 mph40%29.88 "Hg10 mi
1:53 PM77 °FScattered clouds.10 mph40%29.90 "Hg10 mi
Weather by CustomWeather, © 2016

See weather overviewHow to use our weather pages